Station CPTR1 - 8452944 - Conimicut Light, RI Image indicating link to RSS feed of recent meteorological observations for station CPTR1


Conditions at CPTR1 as of
(9:48 pm EDT on 07/13/2024)
0148 GMT on 07/14/2024:
     

Click on the graph icon in the table below to see a time series plot of the last five days of that observation.

5-day plot - Wind Direction Wind Direction (WDIR): S ( 180 deg true )
5-day plot - Wind Speed Wind Speed (WSPD): 7.0 kts
5-day plot - Wind Gust Wind Gust (GST): 8.0 kts
5-day plot - Atmospheric Pressure Atmospheric Pressure (PRES):30.07 in
5-day plot - Water Temperature Water Temperature (WTMP): 78.3 °F
5-day plot - Wind Speed at 10 Meters Wind Speed at 10 meters (WSPD10M): 5.8 kts
5-day plot - Wind Speed at 20 Meters Wind Speed at 20 meters (WSPD20M): 7.8 kts
5-day plot -  Wind Speed, Wind Gust and Atmospheric Pressure Combined plot of Wind Speed, Gust, and Air Pressure
NOS Water Level Observation Network Water Level
Previous observations
TIME
(EDT)
5-day plot - Wind Direction
WDIR
 
5-day plot - Wind Speed
WSPD
kts
5-day plot - Wind Gust
GST
kts
5-day plot - Wave Height
WVHT
ft
5-day plot - Dominant Wave Period
DPD
sec
5-day plot - Average Wave Period
APD
sec
5-day plot - Mean Wave Direction
MWD
 
5-day plot - Atmospheric Pressure
PRES
in
5-day plot - Pressure Tendency
PTDY
in
5-day plot - Air Temperature
ATMP
°F
5-day plot - Water Temperature
WTMP
°F
5-day plot - Dew Point
DEWP
°F
5-day plot - Salinity
SAL
psu
5-day plot - Visibility
VIS
nmi
5-day plot - Tide (above MLLW)
TIDE
ft
2024-07-13 09:42 pm S 8.0 9.9----30.07-- 78.3----
2024-07-13 09:36 pm S 8.9 9.9----30.06-- 78.3----
2024-07-13 09:30 pm S 8.9 12.0----30.06- 73.9 78.3----
2024-07-13 09:24 pm S 8.9 11.1----30.06- 73.9 78.3----
2024-07-13 09:18 pm S 8.9 11.1----30.06-- 78.3----
2024-07-13 09:12 pm S 8.9 12.0----30.06-- 78.3----
2024-07-13 09:06 pm S 11.1 12.0----30.06-- 78.3----
2024-07-13 09:00 pm S 9.9 11.1----30.06+0.00 73.9 78.3----
2024-07-13 08:54 pm S 9.9 11.1----30.06- 73.9 78.3----
2024-07-13 08:48 pm S 11.1 12.0------- 78.3----
2024-07-13 08:42 pm S 11.1 13.0------- 78.3----
2024-07-13 08:36 pm S 13.0 15.0------- 78.4----
2024-07-13 08:30 pm S 13.0 15.0----30.06- 73.9 78.4----
2024-07-13 08:24 pm S 12.0 15.0----30.06- 73.9 78.3----
2024-07-13 08:18 pm S 14.0 15.0----30.06- 73.9 78.3----
2024-07-13 08:12 pm S 14.0 15.0----30.06- 74.1 78.1----
2024-07-13 08:06 pm S 13.0 15.0----30.06- 74.3 77.9----
2024-07-13 08:00 pm S 13.0 15.0----30.06-0.01 74.3 77.9----
2024-07-13 07:54 pm S 15.0 15.9----30.06- 74.3 78.1----
2024-07-13 07:48 pm S 14.0 15.0----30.06- 74.5 78.1----
2024-07-13 07:42 pm S 12.0 13.0----30.06- 74.5 78.1----
2024-07-13 07:36 pm S 13.0 14.0----30.06- 74.5 78.3----
2024-07-13 07:30 pm S 12.0 14.0----30.06- 74.5 78.3----
2024-07-13 07:24 pm S 12.0 15.0----30.07- 74.7 78.3----
2024-07-13 07:18 pm S 14.0 15.9----30.07- 74.5 78.4----
2024-07-13 07:00 pm S 15.0 19.0----30.06-0.03 74.8 78.8----
2024-07-13 06:54 pm S 17.1 18.1----30.06- 75.4 78.8----
2024-07-13 06:48 pm S 17.1 20.0----30.06- 75.4 78.8----
2024-07-13 06:42 pmSSE 17.1 19.0----30.06- 75.6 78.8----
2024-07-13 06:36 pmSSE 15.9 18.1----30.06- 75.7 79.0----
2024-07-13 06:30 pmSSE 13.0 15.9----30.07-- 79.0----
2024-07-13 06:24 pmSSE 15.0 17.1----30.06-- 79.0----
2024-07-13 06:18 pmSSE 14.0 15.9----30.06- 75.9 79.0----
2024-07-13 06:12 pm S 14.0 15.0----30.06- 76.1 79.0----
2024-07-13 06:06 pmSSE 14.0 15.0----30.06- 75.7 79.0----
2024-07-13 06:00 pm S 12.0 14.0----30.07-0.05 75.7 78.8----
2024-07-13 05:54 pmSSE 12.0 13.0----30.07- 75.4 78.8----
2024-07-13 05:48 pmSSE 12.0 13.0----30.07- 75.2 78.8----
2024-07-13 05:42 pmSSE 11.1 13.0----30.07- 75.4 78.8----
2024-07-13 05:36 pmSSE 12.0 13.0----30.07- 75.0 78.8----
2024-07-13 05:30 pmSSE 9.9 12.0----30.07-- 79.0----
2024-07-13 05:24 pmSSE 9.9 12.0----30.07-- 79.0----
2024-07-13 05:18 pmSSE 9.9 11.1----30.07- 75.0 78.8----
2024-07-13 05:12 pmSSE 8.0 8.9----30.07- 74.8 78.8----
2024-07-13 05:06 pmSSE 8.9 8.9----30.07- 74.5 78.8----
2024-07-13 05:00 pmSSE 8.0 8.9----30.07-0.06 74.5 78.6----
2024-07-13 04:54 pmSSE 8.9 8.9----30.08- 74.5 78.6----
2024-07-13 04:48 pmSSE 8.0 8.9----30.08- 74.3 78.6----
2024-07-13 04:42 pmSSE 8.9 11.1----30.08- 74.5 78.6----
2024-07-13 04:36 pmSSE 11.1 11.1----30.08- 74.1 78.6----
2024-07-13 04:30 pmSSE 9.9 11.1----30.08-- 78.6----
2024-07-13 04:24 pmSSE 9.9 11.1----30.09-- 78.6----
2024-07-13 04:18 pmSSE 11.1 12.0----30.09- 73.8 78.8----
2024-07-13 04:12 pmSSE 9.9 12.0----30.09- 73.8 78.8----
2024-07-13 04:06 pmSSE 9.9 12.0----30.09- 73.6 78.8----
2024-07-13 04:00 pmSSE 11.1 12.0----30.09-0.06- 78.8----
2024-07-13 03:54 pmSSE 9.9 12.0----30.10-- 78.8----
2024-07-13 03:48 pmSSE 11.1 13.0----30.10-- 78.8----
2024-07-13 03:42 pmSSE 12.0 13.0----30.11-- 78.6----
2024-07-13 03:36 pmSSE 13.0 15.0----30.11-- 78.4----
2024-07-13 03:30 pmSSE 12.0 14.0----30.11- 73.8 78.4----
2024-07-13 03:24 pmSSE 12.0 14.0----30.11- 73.8 78.3----
2024-07-13 03:18 pmSSE 14.0 15.0----30.11- 73.8 78.3----
2024-07-13 03:12 pmSSE 14.0 15.0----30.11- 73.9 78.3----
2024-07-13 03:06 pmSSE 13.0 14.0----30.11- 73.9 78.1----
2024-07-13 03:00 pm S 13.0 15.0----30.12-0.04- 78.1----
2024-07-13 02:54 pmSSE 14.0 15.0----30.12-- 78.1----
2024-07-13 02:48 pmSSE 12.0 13.0----30.12- 73.9 78.3----
2024-07-13 02:42 pmSSE 12.0 14.0----30.12- 73.9 78.4----
2024-07-13 02:36 pmSSE 12.0 14.0----30.12- 73.8 78.4----
2024-07-13 02:30 pmSSE 11.1 13.0----30.12- 73.8 78.4----
2024-07-13 02:24 pmSSE 12.0 13.0----30.12- 73.6 78.4----
2024-07-13 02:18 pmSSE 11.1 12.0----30.12- 73.8 78.4----
2024-07-13 02:12 pmSSE 9.9 12.0----30.12- 73.8 78.4----
2024-07-13 02:06 pm S 12.0 13.0----30.13- 73.8 78.4----
2024-07-13 02:00 pm S 12.0 13.0----30.13-0.06 73.9 78.4----
2024-07-13 01:54 pm S 11.1 13.0----30.13- 73.6 78.4----
2024-07-13 01:48 pm S 13.0 15.0----30.13-------
2024-07-13 01:42 pm S 14.0 17.1----30.14-------
2024-07-13 01:36 pm S 14.0 15.0----30.14-------
2024-07-13 01:30 pm S 12.0 14.0----30.14- 73.6 78.4----
2024-07-13 01:24 pmSSE 11.1 13.0----30.15- 73.4 78.4----
2024-07-13 01:18 pm S 11.1 12.0----30.15- 73.4 78.4----
2024-07-13 01:12 pm S 12.0 14.0----30.15- 73.9 78.4----
2024-07-13 01:06 pm S 12.0 15.9----30.15- 73.8 78.4----
2024-07-13 01:00 pm-------30.15-0.03- 78.3----
2024-07-13 12:54 pm-------30.15-- 78.3----
2024-07-13 12:48 pm S 8.9 11.1----30.16- 73.2 78.3----
2024-07-13 12:42 pmSSE 9.9 11.1----30.16- 73.4 78.3----
2024-07-13 12:36 pmSSE 8.0 9.9----30.15- 73.6 78.3----
2024-07-13 12:30 pmSSE 9.9 11.1------ 73.4 78.3----
2024-07-13 12:24 pmSSE 11.1 11.1------ 73.9 78.3----
2024-07-13 12:18 pmSSE 9.9 11.1----30.16-------
2024-07-13 12:12 pmSSE 8.9 9.9----30.16-------
2024-07-13 12:06 pm SE 8.0 9.9----30.16-------
2024-07-13 12:00 pmSSE 8.0 8.9----30.16-0.03 73.9 78.1----
2024-07-13 11:54 amSSE 8.0 8.9----30.17- 73.8 78.1----
2024-07-13 11:48 amSSE 8.0 8.9----30.17- 73.8 78.1----
2024-07-13 11:42 amSSE 8.0 8.9----30.17- 73.8 77.9----
2024-07-13 11:36 am S 7.0 8.9----30.17- 73.8 77.9----
2024-07-13 11:30 am S 7.0 9.9----30.17- 73.6 77.9----
2024-07-13 11:24 am S 8.9 9.9----30.18- 73.2 78.1----
2024-07-13 11:18 am S 8.9 8.9----30.18- 73.2 78.1----
2024-07-13 11:12 am S 8.9 11.1----30.18- 73.0 78.1----
2024-07-13 11:06 am S 9.9 13.0----30.19- 73.4 78.1----
2024-07-13 11:00 am S 9.9 12.0----30.19+0.00 73.6 78.1----
2024-07-13 10:54 am S 8.9 11.1----30.19- 73.6 78.1----
2024-07-13 10:48 am S 8.9 9.9----30.19- 73.4 78.1----
2024-07-13 10:42 am S 8.9 11.1----30.19- 73.4 78.1----
2024-07-13 10:36 am S 8.9 12.0----30.19- 73.6 78.1----
2024-07-13 10:30 amSSW 8.9 11.1----30.19- 73.8 77.9----
2024-07-13 10:24 am S 8.0 9.9----30.19- 73.9 77.9----
2024-07-13 10:18 am S 7.0 9.9----30.19- 73.9 77.9----
2024-07-13 10:12 amSSW 7.0 8.0----30.19- 73.9 77.9----
2024-07-13 10:06 amSSW 6.0 8.0----30.18- 74.1 77.9----
2024-07-13 10:00 am SW 5.1 8.0----30.18-0.01 74.3 77.9----
2024-07-13 09:54 am SW 7.0 8.9----30.18- 74.5 77.9----
2024-07-13 09:48 am SW 8.0 12.0----30.18- 74.5 77.9----
2024-07-13 09:42 amSSW 12.0 14.0----30.19- 74.5 77.9----
2024-07-13 09:36 am S 13.0 15.0----30.19- 74.8 77.9----
2024-07-13 09:30 am S 14.0 17.1----30.19- 75.4 77.9----
2024-07-13 09:24 am S 9.9 13.0----30.19- 75.6 77.9----
2024-07-13 09:18 am S 12.0 13.0----30.19- 74.8 77.7----
2024-07-13 09:12 am S 12.0 13.0----30.19- 74.7 77.7----
2024-07-13 09:06 am S 12.0 13.0----30.19- 74.5 77.9----
2024-07-13 09:00 am S 12.0 13.0----30.19+0.00 74.3 77.9----
2024-07-13 08:54 am S 12.0 13.0----30.19- 74.3 77.9----
2024-07-13 08:48 am S 12.0 13.0----30.19- 74.1 77.9----
2024-07-13 08:42 am S 12.0 13.0----30.19- 74.1 77.9----
2024-07-13 08:36 amSSE 13.0 13.0----30.19- 74.1 77.9----
2024-07-13 08:30 amSSE 12.0 14.0----30.18- 74.3 77.9----
2024-07-13 08:24 amSSE 11.1 13.0----30.19- 74.5 77.9----
2024-07-13 08:18 am S 12.0 13.0----30.19- 74.3 77.9----
2024-07-13 08:12 am S 11.1 12.0----30.19- 74.5 77.9----
2024-07-13 08:06 am S 9.9 11.1----30.19- 74.7 78.1----
2024-07-13 08:00 am S 7.0 8.9----30.19+0.01 74.7 78.1----
2024-07-13 07:54 am S 8.0 9.9----30.19- 74.5 78.1----
2024-07-13 07:48 am S 8.9 9.9----30.19-- 78.1----
2024-07-13 07:42 am S 7.0 12.0----30.19-- 78.1----
2024-07-13 07:36 am S 9.9 12.0----30.19-- 78.1----
2024-07-13 07:30 am S 8.9 11.1----30.19-- 78.1----
2024-07-13 07:24 am S 8.0 11.1----30.19-- 78.3----
2024-07-13 07:18 am S 8.9 11.1----30.19- 74.1 78.3----
2024-07-13 07:12 am S 9.9 12.0----30.19- 74.1 78.3----
2024-07-13 07:06 am S 8.9 11.1----30.19- 74.5 78.3----
2024-07-13 07:00 am S 8.9 11.1----30.19- 74.5 78.3----
2024-07-13 06:54 am S 8.9 11.1----30.19- 74.5 78.3----
2024-07-13 06:48 am S 9.9 12.0----30.19- 74.5 78.3----
2024-07-13 06:42 am S 9.9 12.0----30.19- 74.5 78.3----
2024-07-13 06:36 am S 11.1 12.0----30.19- 74.1 78.3----
2024-07-13 06:30 am S 11.1 12.0----30.19- 74.3 78.3----
2024-07-13 06:24 am S 12.0 13.0----30.19- 74.5 78.3----
2024-07-13 06:18 am S 9.9 12.0----30.19- 74.7 78.3----
2024-07-13 06:12 am S 12.0 13.0----30.19- 74.5 78.3----
2024-07-13 06:06 am S 12.0 13.0----30.19- 74.5 78.3----
2024-07-13 06:00 am S 11.1 12.0----30.19+0.00- 78.3----
2024-07-13 05:54 am S 11.1 13.0----30.18-- 78.1----
2024-07-13 05:48 am S 12.0 14.0----30.19-- 78.1----
2024-07-13 05:42 am S 12.0 14.0----30.18-- 78.1----
2024-07-13 05:36 am S 11.1 13.0----30.19-- 78.3----
2024-07-13 05:30 am S 9.9 12.0----30.19- 75.0 78.3----
2024-07-13 05:24 am S 8.0 11.1----30.19- 75.0 78.3----
2024-07-13 05:18 am S 11.1 12.0----30.18- 74.7 78.4----
2024-07-13 05:12 am S 11.1 15.0----30.18- 74.5 78.4----
2024-07-13 05:06 am S 14.0 17.1----30.18- 75.0 78.4----
2024-07-13 05:00 am S 15.0 17.1----30.18+0.00 75.2 78.4----
2024-07-13 04:54 am S 15.0 15.9----30.18- 75.2 78.4----
2024-07-13 04:48 am S 14.0 15.0----30.19- 75.2 78.6----
2024-07-13 04:42 am S 13.0 15.0----30.19- 74.8 78.6----
2024-07-13 04:36 am S 14.0 15.0----30.18- 74.8 78.6----
2024-07-13 04:30 am S 13.0 15.0----30.17- 74.8 78.6----
2024-07-13 04:24 am S 13.0 15.9----30.18- 75.0 78.6----
2024-07-13 04:18 am S 14.0 15.9----30.18- 75.0 78.6----
2024-07-13 04:12 am S 13.0 15.0----30.17- 75.0 78.6----
2024-07-13 04:06 am S 11.1 13.0----30.17- 75.0 78.6----
2024-07-13 04:00 am S 9.9 13.0------ 75.0 78.8----
2024-07-13 03:54 am S 12.0 14.0------ 75.0 78.8----
2024-07-13 03:48 am S 12.0 15.9----30.18- 75.0 78.8----
2024-07-13 03:42 am S 12.0 14.0----30.18- 74.5 78.8----
2024-07-13 03:36 am S 12.0 14.0----30.18- 74.5 78.8----
2024-07-13 03:30 amSSE 13.0 14.0----30.18- 74.5 78.8----
2024-07-13 03:24 amSSE 12.0 13.0----30.18- 74.3 78.8----
2024-07-13 03:18 amSSE 12.0 14.0----30.18- 74.1 78.8----
2024-07-13 03:12 am S 13.0 14.0----30.18- 74.7 78.6----
2024-07-13 03:06 amSSE 13.0 14.0----30.18- 74.7 78.6----
2024-07-13 03:00 am S 14.0 15.0----30.18-0.03 74.7 78.6----
2024-07-13 02:54 am S 12.0 15.0----30.18- 74.7 78.6----
2024-07-13 02:48 amSSE 15.0 15.9----30.18- 74.8 78.6----
2024-07-13 02:42 am S 13.0 14.0----30.18- 75.0 78.4----
2024-07-13 02:36 am S 13.0 15.0----30.18- 75.0 78.4----
2024-07-13 02:30 am S 13.0 14.0----30.18- 75.0 78.4----
2024-07-13 02:24 am S 12.0 14.0----30.18- 75.0 78.4----
2024-07-13 02:18 am S 13.0 14.0----30.18- 75.2 78.3----
2024-07-13 02:12 am S 14.0 15.0----30.18- 75.2 78.1----
2024-07-13 02:06 am S 12.0 15.0----30.18- 75.2 77.9----
2024-07-13 02:00 am S 12.0 14.0----30.19-0.02 75.4 77.9----
2024-07-13 01:54 am S 12.0 14.0----30.19- 75.4 77.9----
2024-07-13 01:48 am S 12.0 14.0----30.19- 75.4 77.9----
2024-07-13 01:42 am S 12.0 14.0----30.19- 75.6 78.1----
2024-07-13 01:36 am S 12.0 14.0----30.19- 75.6 78.1----
2024-07-13 01:30 am S 11.1 13.0----30.19- 75.6 77.9----
2024-07-13 01:24 am S 11.1 13.0----30.19- 75.6 78.1----
2024-07-13 01:18 am S 9.9 12.0----30.19- 75.7 77.9----
2024-07-13 01:12 am S 11.1 13.0----30.19- 75.7 78.1----
2024-07-13 01:06 am S 8.9 13.0----30.20- 75.7 78.1----
2024-07-13 01:00 am S 9.9 12.0----30.20+0.00 75.7 78.1----
2024-07-13 12:54 am S 9.9 13.0----30.20- 75.7 78.1----
2024-07-13 12:48 am S 12.0 13.0----30.21- 75.7 78.3----
2024-07-13 12:42 am S 12.0 14.0----30.20- 75.7 78.4----
2024-07-13 12:36 am S 11.1 13.0----30.21- 75.6 78.6----
2024-07-13 12:30 am S 12.0 15.0----30.21- 75.6 78.8----
2024-07-13 12:24 am S 13.0 15.0----30.21- 75.6 78.8----
2024-07-13 12:18 am S 15.0 17.1----30.21- 75.6 78.8----
2024-07-13 12:12 am S 14.0 15.9----30.21- 75.6 79.0----
2024-07-13 12:06 am S 15.0 17.1----30.21- 75.4 79.0----
2024-07-13 12:00 am S 15.0 17.1----30.21+0.00 75.6 79.0----
2024-07-12 11:54 pm S 15.0 18.1----30.22- 75.6 79.0----
2024-07-12 11:48 pm S 15.9 18.1----30.22- 75.7 79.0----
2024-07-12 11:42 pm S 15.0 15.9----30.22- 75.6 79.2----
2024-07-12 11:36 pm S 15.0 15.9----30.22- 75.9 79.2----
2024-07-12 11:30 pm S 14.0 15.9----30.22- 75.7 79.2----
2024-07-12 11:24 pm S 15.0 17.1----30.22- 75.7 79.2----
2024-07-12 11:18 pm S 15.0 18.1----30.21- 75.7 79.2----
2024-07-12 11:12 pm S 15.0 17.1----30.21- 75.7 79.0----
2024-07-12 11:06 pm S 14.0 15.9----30.21- 75.7 79.0----
2024-07-12 11:00 pm S 14.0 15.9----30.20+0.01 75.7 79.0----
2024-07-12 10:54 pm S 14.0 15.9----30.21- 75.9 79.0----
2024-07-12 10:48 pm S 13.0 14.0----30.21- 75.9 79.0----
2024-07-12 10:42 pm S 12.0 14.0----30.21- 75.9 79.0----
2024-07-12 10:36 pm S 14.0 19.0----30.21- 76.1 79.0----
2024-07-12 10:30 pm S 17.1 19.0----30.21- 76.5 79.0----
2024-07-12 10:24 pm S 15.0 18.1----30.21- 76.1 79.0----
2024-07-12 10:18 pm S 15.9 19.0----30.21- 76.1 79.0----
2024-07-12 10:12 pm S 15.9 19.0----30.21- 76.3 78.8----
2024-07-12 10:06 pmSSE 15.0 17.1----30.21- 76.3 78.8----
2024-07-12 10:00 pm S 13.0 18.1----30.21+0.03 77.0 78.8----
2024-07-12 09:54 pm S 15.0 15.9----30.21- 76.8 78.8----